This is the latest recevied weather packets stored in our database for station/object DG6YGE-6. If no packets are shown the sender has not sent any weather packets the latest 10 day(s).
| Time | Temp. | Humidity | Pressure | Rain* | Wind** | Luminosity | Snow |
|---|---|---|---|---|---|---|---|
| 1777352351 | 6.11° C | 76% | 1021.2 hPa | 0 mm | - | 38 W/m² | - |
| 1777351751 | 6.11° C | 76% | 1021.2 hPa | 0 mm | - | 31 W/m² | - |
| 1777351150 | 6.11° C | 76% | 1021.1 hPa | 0 mm | - | 20 W/m² | - |
| 1777350550 | 6.11° C | 76% | 1021.2 hPa | 0 mm | - | 13 W/m² | - |
| 1777349950 | 6.11° C | 76% | 1021.1 hPa | 0 mm | - | 8 W/m² | - |
| 1777349350 | 6.11° C | 75% | 1021 hPa | 0 mm | - | 2 W/m² | - |
| 1777348751 | 6.11° C | 75% | 1021.1 hPa | 0 mm | - | 0 W/m² | - |
| 1777348150 | 6.11° C | 75% | 1021.1 hPa | 0 mm | - | 0 W/m² | - |
| 1777347550 | 6.67° C | 74% | 1021.1 hPa | 0 mm | - | 0 W/m² | - |
| 1777346950 | 6.67° C | 74% | 1021.2 hPa | 0 mm | - | 0 W/m² | - |
| 1777346350 | 6.67° C | 74% | 1021.2 hPa | 0 mm | - | 0 W/m² | - |
| 1777345750 | 6.67° C | 74% | 1021.2 hPa | 0 mm | - | 0 W/m² | - |
| 1777345151 | 6.67° C | 73% | 1021.2 hPa | 0 mm | - | 0 W/m² | - |
| 1777344550 | 6.67° C | 73% | 1021.3 hPa | 0 mm | - | 0 W/m² | - |
| 1777343951 | 7.22° C | 72% | 1021.4 hPa | 0 mm | - | 0 W/m² | - |
| 1777343350 | 7.22° C | 72% | 1021.4 hPa | 0 mm | - | 0 W/m² | - |
| 1777342750 | 7.22° C | 72% | 1021.4 hPa | 0 mm | - | 0 W/m² | - |
| 1777342150 | 7.22° C | 72% | 1021.3 hPa | 0 mm | - | 0 W/m² | - |
| 1777341550 | 7.22° C | 72% | 1021.2 hPa | 0 mm | - | 0 W/m² | - |
| 1777340950 | 7.22° C | 72% | 1021 hPa | 0 mm | - | 0 W/m² | - |
| 1777340350 | 7.78° C | 71% | 1021 hPa | 0 mm | - | 0 W/m² | - |
| 1777339751 | 7.78° C | 72% | 1021 hPa | 0 mm | - | 0 W/m² | - |
| 1777339150 | 7.78° C | 71% | 1021 hPa | 0 mm | - | 0 W/m² | - |
| 1777338551 | 7.78° C | 71% | 1021 hPa | 0 mm | - | 0 W/m² | - |
| 1777337951 | 7.78° C | 71% | 1021 hPa | 0 mm | - | 0 W/m² | - |
* Rain latest hour (hover to see other rain measurements)
** Current wind speed in m/s (hover to see current wind gust speed)